Погода Ордынское

Погода Ордынское : погода сейчас, прогноз погоды и архив. Всё, что Вы хотите узнать о погоде Ордынское!

Хотите узнать прогноз погоды Ордынское? Тогда Вам сюда: Погода Ордынское

Поиск расширенной информации на нашем сайте:

Другие новости

Новости СМИ2

Главная страница сайта

Новости сайта

02.10.2013

Напоминаем, что на нашем новом сайте вы можете получить высокодетализированные прогнозы погоды по пунктам России, СНГ и мира (включающие важные для авиации метеовеличины, такие как направление и скорость ветра, видимость, явления погоды, количество и форма облачности, нижняя и верхняя граница облачности), а также ознакомиться с разнообразными материалами по авиационной метеорологии и подборкой полезных ссылок на эту тему.

Сайт Метеоцентр.Азия посвящён разработке технологий оптимизации авиаметеорологического обслуживания, включая проектирование и перспективное создание нескольких автоматизированных авиаметеорологических систем:
- система выпуска высокодетальных прогностических карт явлений погоды для нижнего воздушного пространства по России и ближнему зарубежью;
- система верификации прогнозов TAF (выпускаемых синоптиками официальных АМСГ РФ и ближнего зарубежья) и AUTOTAF (выпускаемых сайтом Метеоцентр.Азия) - выявление ошибок, онлайн-сопоставление с фактической погодой METAR, автоматическое внесение коррективов в прогнозы при резком отклонении фактической погоды от прогноза, подсчёт оправдываемости прогнозов по элементам и в целом;
- система обработки, анализа и отображения авиаметеорологической информации для применения провайдерами метеорологической информации.

Рекомендуем: Подробное описание Оборудование для производства простокваши у нас.

Погода Ордынское - сегодня

Время (UTC), дата Ветер
(°,м/с) 
Видим.   Явления Облачность Т
(°С)
Тd
(°С)
f(%) Тe
(°С)
Pmin
(гПа)
dP
(гПа)
Po
(мм)
O2
(г/м3)
Тmin Tmax R s Состояние
почвы
00 25.03.17 190 (Ю) 10 км  слаб. ливневой дождь  8/8 600 м кучево-дожд. 
[Cb calv]
+1.8 -2.4 74 1016.3  -1.6  750  300  -1.8    0.0  27  неравномерный
мокрый или
старый снег
100% 
03 25.03.17 190 (Ю) 20000 м  {ливн. осадки}  10/6 600 м кучево-дожд., средняя 
[Cb calv|Ac As]
+2.4 -0.5 81 +1  1016.1  -0.2  750  299           
06 25.03.17 200 (Ю) 20000 м  {ливн. осадки}  10/8 600 м кучево-дожд., средняя 
[Cb calv|Ac As]
+2.1 +0 86 1015.5  -0.6  749  300           
09 25.03.17 230 (ЮЗ) 10 км  слаб. ливневой дождь  10/8 600 м кучево-дожд., средняя 
[Cb calv|Ac As]
+1.8 +0 88 1015.7  0.1  749  300           
12 25.03.17 230 (ЮЗ) 4{10}  20000 м  {ливн. осадки}  9/6 600 м кучево-дожд., средняя 
[Cb calv|Ac trans]
+1.6 -1.7 79 -1  1017  1.3  750  301    +2.7  0.1     
15 25.03.17 240 (ЮЗ) 20000 м    10/4 1000 м средняя, верхняя 
[Sc|Ac As|Ci fib]
+0 -2.9 81 -2  1019.3  2.2  752  303           
18 25.03.17 230 (ЮЗ) 20000 м    ясно 
-2.5 -5.3 81 -4  1022.2  2.7  754  307           
21 25.03.17 230 (ЮЗ) 20000 м    ясно 
-3.7 -5.5 87 -5  1024.3  755  309           
00 26.03.17 220 (ЮЗ) 20000 м    1/0 верхняя 
[Ci fib]
-6.1 -7.3 91 -6  1026.7  2.2  757  313  -6.1      24  неравномерный
мокрый или
старый снег
100% 
03 26.03.17 200 (Ю) 4000 м  дымка  10/10 300 м 
[St]
-4 -5 93 -4  1028.1  1.5  758  311  -7         
06 26.03.17 280 (З) 20000 м    1/1 1500 м 
[Sc]
+0 -3.5 77 -1  1027.6  -0.2  758  306           
09 26.03.17 320 (СЗ) 20000 м    3/0 верхняя 
[Ci fib]
+1.5 -3.2 71 +1  1025.1  -2.4  756  303           
12 26.03.17 040 (СВ) 20000 м    3/0 верхняя 
[Ci fib]
+1.4 -3.7 69 +1  1022.3  -2.7  754  303    +2.5       
15 26.03.17 090 (В) 20000 м    ясно 
-1.5 -4.5 80 -1  1019.9  -2.6  752  305           
18 26.03.17 060 (СВ) 20000 м    ясно 
-2.8 -4.8 86 -2  1016.7  -3.2  750  306           
21 26.03.17 060 (СВ) 20000 м    6/0 верхняя 
[Cs]
-2 -4.5 83 -1  1013.7  -2.9  748  304           
00 27.03.17 070 (В) 10 км  слаб. ливневой дождь [диам. гололёда 0 мм]  10/10 600 м кучево-дожд. 
[Cb calv]
-1.8 -3.8 86 -3  1012.4  -1.3  747  303  -3.4    0.0  21  неравномерный
мокрый или
старый снег
100% 
03 27.03.17 140 (ЮВ) 10 км  слаб. ливневой дождь [диам. гололёда 2 мм]  10/10 600 м кучево-дожд. 
[Cb calv]
+0.4 -0.8 92 +1  1012.1  -0.2  747  300           
06 27.03.17 220 (ЮЗ) 20000 м  в посл. час ливневой дождь  10/10 300 м кучево-дожд. 
[Cb calv]
+2.1 +0.5 89 +1  1013.3  1.3  748  299           
09 27.03.17 250 (З) 4000 м  слаб. ливневой снег  10/10 600 м кучево-дожд. 
[Cb calv]
+0.6 -1.3 87 -1  1016.2  2.8  750  302           
12 27.03.17 240 (ЮЗ) 20000 м  {ливн. осадки}  10/10 600 м кучево-дожд. 
[Cb calv]
+0.2 -2.3 83 -2  1019.6  3.3  752  303    +2.5     
15 27.03.17 220 (ЮЗ) 20000 м    10/10 600 м кучево-дожд. 
[Cb calv]
-1.2 -3.2 86 -4  1022.5  2.7  754  306           
18 27.03.17 220 (ЮЗ) 3{10}  20000 м    10/10 1000 м 
[Sc]
+0 -1.7 88 -2  1023.3  0.9  755  304           
21 27.03.17 220 (ЮЗ) 20000 м    10/10 600 м кучево-дожд. 
[Cb calv]
+1.1 -0.3 90 1023.3  0.1  755  303           
00 28.03.17 210 (ЮЗ) 20000 м    10/10 600 м кучево-дожд. 
[Cb calv]
+1.6 +0.2 90 1023.4  0.1  755  302  -1.2      20  неравномерный
мокрый или
старый снег
100% 
Время (UTC), дата Ветер
(°,м/с) 
Видим.   Явления Облачность Т
(°С)
Тd
(°С)
f(%) Тe
(°С)
Pmin
(гПа)
dP
(гПа)
Po
(мм)
O2
(г/м3)
Тmin Tmax R s Состояние
почвы

Для получения пояснительной информации подведите курсор к названию столбца.

ПОГОДА Ордынское - архив

Всё, что Вы хотите узнать о погоде Ордынское - удобно и подробно!

Выберите нужную дату (начиная с 1 января 2015* года) и нажмите кнопку "Найти".
Будут отображены архивные сводки погоды по пункту Ордынское, начиная с указанной даты.


Отображать данные в формате CSV (для использования в таблицах Excel)


Внимание! Наш архив погоды предназначен исключительно для личного некоммерческого использования в познавательных целях. Если Вам необходимы официальные справки о состоянии погоды (для производственных, юридических, коммерческих и т.п. целей), обращайтесь в органы Росгидромета.

*Примечание: данная дата относится к архиву по метеостанциям СССР (Россия, СНГ, Балтия).
Архив по метеостанциям Зарубежной Европы и Азии (кроме Китая) хранится 10 дней, по другим регионам земного шара (Китай, Африка, Америка, Австралия, Океания) - 1 день.

Ордынское - район местоположения метеостанции


Название, широта, долгота, высота метеостанции:
Ордынское 54.4°ш. 81.9°д. 134 м над ур. моря [Российская Федерация]

Дополнительная информация

В oтличие oт бoльшинства пoгoдных сайтoв мы публикуем пoдрoбную метеoинфoрмацию в детальнoм прoфессиoнальнoм фoрмате.

Характеристики температуры и влажнoсти вoздуха измеряются на высoте 2 м в тени вдали oт зданий и деревьев.
Скoрoсть ветра измеряется на высoте 10 м (на урoвне рoста челoвека скoрoсть ветра ниже в 1.5-2 раза). Если метеoстанция нахoдится в гoрoде или в лесу, тo скoрoсть ветра занижена на 2-4 м/с пo сравнению с oткрытым местoм. Скoрoсть ветра над акватoриями крупных рек и oзёр, а также на вершинах хoлмoв на 2-5 м/с выше, чем в oбычных услoвиях.
Атмoсфернoе давление в разных тoчках местнoсти мoжет значительнo oтличаться oт давления на метеoстанции, в зависимoсти oт услoвий рельефа (при пoдъёме на 10 м давление пoнижается примернo на 1 мм рт.ст.).